| time (UTC) | temp F | wind direction | speed MPH | gust MPH | rain 1hr in | rain 24hr in | rain mn in | humidity % | barometer mb |
| 20260505083254 | 71 | 236 | 4.0 | 5.0 | 0.00 | 0.00 | 0.00 | 99 | 1011.0 |
| 20260505082750 | 71 | 219 | 3.0 | 5.0 | 0.00 | 0.00 | 0.00 | 99 | 1010.8 |
| 20260505082248 | 71 | 194 | 2.0 | 5.0 | 0.00 | 0.00 | 0.00 | 99 | 1011.0 |
| 20260505081743 | 71 | 150 | 0.0 | 10.0 | 0.00 | 0.00 | 0.00 | 99 | 1010.9 |
| 20260505081241 | 71 | 173 | 1.0 | 7.0 | 0.00 | 0.00 | 0.00 | 99 | 1010.8 |
| 20260505080738 | 71 | 201 | 3.0 | 10.0 | 0.00 | 0.00 | 0.00 | 99 | 1010.8 |
| 20260505080233 | 71 | 231 | 3.0 | 10.0 | 0.00 | 0.00 | 0.00 | 99 | 1010.7 |
| 20260505075729 | 71 | 155 | 3.0 | 8.0 | 0.00 | 0.00 | 0.00 | 99 | 1011.1 |
| 20260505075226 | 71 | 221 | 4.0 | 4.0 | 0.00 | 0.00 | 0.00 | 99 | 1011.2 |
| 20260505074724 | 71 | 245 | 4.0 | 6.0 | 0.00 | 0.00 | 0.00 | 99 | 1011.2 |
| 20260505074221 | 71 | 189 | 0.0 | 9.0 | 0.00 | 0.00 | 0.00 | 99 | 1011.5 |
| 20260505073718 | 71 | 220 | 2.0 | 7.0 | 0.00 | 0.00 | 0.00 | 99 | 1011.3 |
| 20260505073216 | 71 | 141 | 3.0 | 8.0 | 0.00 | 0.00 | 0.00 | 99 | 1011.4 |
| 20260505072712 | 71 | 144 | 2.0 | 5.0 | 0.00 | 0.00 | 0.00 | 99 | 1011.3 |
| 20260505072208 | 72 | 117 | 2.0 | 9.0 | 0.00 | 0.00 | 0.00 | 99 | 1011.5 |
| 20260505071704 | 72 | 0 | 1.0 | 6.0 | 0.00 | 0.00 | 0.00 | 99 | 1011.9 |
| 20260505071201 | 72 | 167 | 0.0 | 7.0 | 0.00 | 0.00 | 0.00 | 99 | 1011.7 |
| 20260505070659 | 72 | 240 | 6.0 | 7.0 | 0.00 | 0.00 | 0.00 | 99 | 1011.9 |
| 20260505070155 | 72 | 221 | 2.0 | 11.0 | 0.00 | 0.00 | 0.00 | 99 | 1011.8 |
| 20260505065651 | 72 | 143 | 3.0 | 6.0 | 0.00 | 0.00 | 0.00 | 99 | 1011.8 |
| 20260505065148 | 72 | 100 | 4.0 | 13.0 | 0.00 | 0.00 | 0.00 | 99 | 1011.8 |
| 20260505064644 | 72 | 82 | 4.0 | 5.0 | 0.00 | 0.00 | 0.00 | 99 | 1012.0 |
| 20260505064143 | 72 | 195 | 0.0 | 9.0 | 0.00 | 0.00 | 0.00 | 99 | 1011.9 |
| 20260505063640 | 72 | 192 | 4.0 | 7.0 | 0.00 | 0.00 | 0.00 | 99 | 1012.1 |
| 20260505063136 | 72 | 230 | 4.0 | 7.0 | 0.00 | 0.00 | 0.00 | 99 | 1012.0 |
| 20260505062633 | 72 | 243 | 5.0 | 9.0 | 0.00 | 0.00 | 0.00 | 99 | 1012.2 |
| 20260505062130 | 73 | 205 | 4.0 | 9.0 | 0.00 | 0.00 | 0.00 | 99 | 1012.2 |
| 20260505061627 | 73 | 160 | 3.0 | 9.0 | 0.00 | 0.00 | 0.00 | 99 | 1012.0 |
| 20260505061125 | 73 | 81 | 0.0 | 5.0 | 0.00 | 0.00 | 0.00 | 99 | 1012.0 |
| 20260505060622 | 73 | 103 | 0.0 | 8.0 | 0.00 | 0.00 | 0.00 | 99 | 1012.0 |
| 20260505060119 | 73 | 186 | 1.0 | 7.0 | 0.00 | 0.00 | 0.00 | 99 | 1012.0 |
| 20260505055614 | 73 | 222 | 3.0 | 6.0 | 0.00 | 0.00 | 0.00 | 99 | 1012.1 |
| 20260505055111 | 73 | 90 | 1.0 | 6.0 | 0.00 | 0.00 | 0.00 | 99 | 1012.2 |
| 20260505054608 | 73 | 272 | 0.0 | 9.0 | 0.00 | 0.00 | 0.00 | 99 | 1012.4 |
| 20260505054106 | 73 | 196 | 4.0 | 6.0 | 0.00 | 0.00 | 0.00 | 99 | 1012.2 |
| 20260505053603 | 73 | 114 | 0.0 | 10.0 | 0.00 | 0.00 | 0.00 | 99 | 1012.2 |
| 20260505053100 | 73 | 205 | 5.0 | 9.0 | 0.00 | 0.00 | 0.00 | 99 | 1012.2 |
| 20260505052556 | 73 | 123 | 2.0 | 3.0 | 0.00 | 0.00 | 0.00 | 99 | 1012.4 |
| 20260505052054 | 73 | 304 | 2.0 | 7.0 | 0.00 | 0.00 | 0.00 | 99 | 1012.6 |
| 20260505051550 | 73 | 157 | 0.0 | 11.0 | 0.00 | 0.00 | 0.00 | 99 | 1012.3 |
| 20260505050437 | 74 | 225 | 2.0 | 9.0 | 0.00 | 1.33 | 1.33 | 99 | 1012.1 |
| 20260505041405 | 74 | 192 | 1.0 | 8.0 | 0.00 | 1.33 | 1.33 | 99 | 1012.8 |
| 20260505040902 | 74 | 222 | 0.0 | 11.0 | 0.00 | 1.33 | 1.33 | 99 | 1012.8 |
| 20260505040359 | 74 | 120 | 1.0 | 4.0 | 0.00 | 1.33 | 1.33 | 99 | 1012.7 |
| 20260505035856 | 74 | 66 | 0.0 | 7.0 | 0.00 | 1.33 | 1.33 | 99 | 1012.6 |
| 20260505035352 | 74 | 291 | 1.0 | 5.0 | 0.00 | 1.33 | 1.33 | 99 | 1012.5 |
| 20260505034849 | 75 | 151 | 2.0 | 7.0 | 0.00 | 1.33 | 1.33 | 99 | 1012.5 |
| 20260505034346 | 75 | 106 | 2.0 | 6.0 | 0.00 | 1.33 | 1.33 | 99 | 1012.3 |
| 20260505033843 | 75 | 69 | 0.0 | 7.0 | 0.00 | 1.33 | 1.33 | 99 | 1012.4 |
| 20260505033339 | 75 | 162 | 2.0 | 9.0 | 0.00 | 1.33 | 1.33 | 99 | 1012.5 |
| 20260505032838 | 75 | 228 | 0.0 | 3.0 | 0.00 | 1.33 | 1.33 | 99 | 1012.6 |
| 20260505032334 | 75 | 135 | 2.0 | 7.0 | 0.00 | 1.33 | 1.33 | 99 | 1012.6 |
| 20260505031831 | 75 | 245 | 0.0 | 7.0 | 0.00 | 1.33 | 1.33 | 99 | 1012.6 |
| 20260505031328 | 75 | 248 | 0.0 | 6.0 | 0.00 | 1.33 | 1.33 | 99 | 1012.5 |
| 20260505030825 | 75 | 142 | 4.0 | 6.0 | 0.00 | 1.33 | 1.33 | 99 | 1012.8 |
| 20260505030321 | 75 | 127 | 3.0 | 5.0 | 0.00 | 1.33 | 1.33 | 99 | 1012.5 |
| 20260505025816 | 75 | 96 | 2.0 | 7.0 | 0.00 | 1.33 | 1.33 | 99 | 1012.6 |
| 20260505025315 | 75 | 218 | 5.0 | 5.0 | 0.00 | 1.33 | 1.33 | 99 | 1012.8 |
| 20260505024813 | 75 | 132 | 0.0 | 6.0 | 0.00 | 1.33 | 1.33 | 99 | 1012.6 |
| 20260505024310 | 75 | 233 | 0.0 | 12.0 | 0.00 | 1.33 | 1.33 | 99 | 1012.6 |
| 20260505023807 | 75 | 135 | 2.0 | 7.0 | 0.00 | 1.33 | 1.33 | 99 | 1012.4 |
| 20260505023304 | 75 | 74 | 0.0 | 4.0 | 0.00 | 1.33 | 1.33 | 99 | 1012.6 |
| 20260505022801 | 75 | 235 | 2.0 | 8.0 | 0.00 | 1.33 | 1.33 | 99 | 1012.3 |
| 20260505022258 | 75 | 222 | 3.0 | 4.0 | 0.00 | 1.33 | 1.33 | 99 | 1012.4 |
| 20260505021755 | 75 | 203 | 5.0 | 7.0 | 0.00 | 1.33 | 1.33 | 99 | 1012.4 |
| 20260505021252 | 75 | 194 | 0.0 | 8.0 | 0.00 | 1.33 | 1.33 | 99 | 1012.2 |
| 20260505020748 | 75 | 151 | 2.0 | 6.0 | 0.00 | 1.33 | 1.33 | 99 | 1012.1 |
| 20260505020243 | 75 | 45 | 0.0 | 5.0 | 0.00 | 1.33 | 1.33 | 99 | 1012.2 |
| 20260505015740 | 76 | 90 | 1.0 | 8.0 | 0.00 | 1.33 | 1.33 | 99 | 1012.2 |
| 20260505015237 | 75 | 213 | 2.0 | 5.0 | 0.00 | 1.33 | 1.33 | 99 | 1012.3 |
| 20260505014734 | 76 | 270 | 2.0 | 5.0 | 0.00 | 1.33 | 1.33 | 99 | 1012.5 |
| 20260505014232 | 76 | 128 | 3.0 | 8.0 | 0.00 | 1.33 | 1.33 | 99 | 1012.5 |
| 20260505013728 | 76 | 135 | 3.0 | 4.0 | 0.00 | 1.33 | 1.33 | 99 | 1012.3 |
| 20260505013225 | 76 | 188 | 0.0 | 5.0 | 0.00 | 1.33 | 1.33 | 99 | 1012.3 |
| 20260505012724 | 76 | 173 | 1.0 | 7.0 | 0.00 | 1.33 | 1.33 | 99 | 1012.3 |
| 20260505012221 | 76 | 153 | 4.0 | 5.0 | 0.00 | 1.33 | 1.33 | 99 | 1012.2 |
| 20260505011716 | 77 | 234 | 0.0 | 5.0 | 0.00 | 1.33 | 1.33 | 99 | 1012.2 |
| 20260505011214 | 77 | 120 | 1.0 | 9.0 | 0.00 | 1.33 | 1.33 | 99 | 1012.3 |
| 20260505010709 | 77 | 258 | 5.0 | 12.0 | 0.00 | 1.33 | 1.33 | 99 | 1012.3 |
| 20260505010206 | 77 | 135 | 3.0 | 8.0 | 0.00 | 1.33 | 1.33 | 99 | 1012.2 |
| 20260505005702 | 77 | 217 | 0.0 | 9.0 | 0.00 | 1.33 | 1.33 | 99 | 1012.0 |
| 20260505005159 | 77 | 123 | 0.0 | 5.0 | 0.00 | 1.33 | 1.33 | 99 | 1012.1 |
| 20260505004656 | 77 | 246 | 1.0 | 10.0 | 0.00 | 1.33 | 1.33 | 99 | 1012.2 |
| 20260505004153 | 77 | 119 | 3.0 | 22.0 | 0.00 | 1.33 | 1.33 | 99 | 1012.0 |
| 20260505003650 | 77 | 212 | 0.0 | 6.0 | 0.00 | 1.33 | 1.33 | 99 | 1012.4 |
| 20260505003147 | 77 | 152 | 3.0 | 9.0 | 0.00 | 1.33 | 1.33 | 99 | 1012.4 |
| 20260505002644 | 78 | 153 | 4.0 | 7.0 | 0.00 | 1.33 | 1.33 | 99 | 1012.2 |
| 20260505002142 | 78 | 82 | 0.0 | 9.0 | 0.00 | 1.33 | 1.33 | 99 | 1012.4 |
| 20260505001638 | 78 | 90 | 0.0 | 8.0 | 0.00 | 1.33 | 1.33 | 99 | 1012.4 |
| 20260505001136 | 78 | 221 | 2.0 | 6.0 | 0.00 | 1.33 | 1.33 | 99 | 1012.5 |
| 20260505000633 | 79 | 217 | 7.0 | 18.0 | 0.00 | 1.33 | 1.33 | 99 | 1012.5 |
| 20260505000131 | 79 | 210 | 3.0 | 11.0 | 0.00 | 1.33 | 1.33 | 99 | 1012.4 |
| 20260504235627 | 79 | 131 | 0.0 | 9.0 | 0.00 | 1.33 | 1.33 | 99 | 1012.5 |
| 20260504235124 | 79 | 135 | 3.0 | 12.0 | 0.00 | 1.33 | 1.33 | 99 | 1012.4 |
| 20260504234621 | 79 | 175 | 5.0 | 7.0 | 0.00 | 1.33 | 1.33 | 99 | 1012.4 |
| 20260504234118 | 79 | 195 | 1.0 | 6.0 | 0.00 | 1.33 | 1.33 | 99 | 1012.6 |
| 20260504233613 | 79 | 218 | 3.0 | 11.0 | 0.00 | 1.33 | 1.33 | 99 | 1012.6 |
| 20260504233110 | 79 | 202 | 3.0 | 13.0 | 0.00 | 1.33 | 1.33 | 99 | 1012.5 |
| 20260504232607 | 79 | 142 | 3.0 | 9.0 | 0.00 | 1.33 | 1.33 | 99 | 1012.6 |
| 20260504232105 | 79 | 248 | 9.0 | 9.0 | 0.00 | 1.33 | 1.33 | 99 | 1012.6 |
| 20260504231601 | 79 | 173 | 1.0 | 19.0 | 0.00 | 1.33 | 1.33 | 99 | 1012.7 |
| 20260504231057 | 80 | 216 | 2.0 | 8.0 | 0.00 | 1.33 | 1.33 | 99 | 1012.7 |
| 20260504230553 | 80 | 147 | 3.0 | 9.0 | 0.00 | 1.33 | 1.33 | 99 | 1013.0 |
| 20260504230053 | 81 | 211 | 4.0 | 12.0 | 7.98 | 1.33 | 1.33 | 99 | 1012.9 |
| 20260504225549 | 82 | 203 | 15.0 | 15.0 | 7.98 | 1.33 | 1.33 | 99 | 1012.7 |
| 20260504225046 | 81 | 147 | 4.0 | 10.0 | 0.00 | 0.00 | 0.00 | 99 | 1013.0 |
| 20260504224543 | 81 | 84 | 3.0 | 8.0 | 0.00 | 0.00 | 0.00 | 99 | 1013.1 |
| 20260504224040 | 80 | 0 | 1.0 | 13.0 | 0.00 | 0.00 | 0.00 | 99 | 1013.2 |
| 20260504223537 | 81 | 103 | 3.0 | 7.0 | 0.00 | 0.00 | 0.00 | 99 | 1013.2 |
| 20260504223033 | 82 | 211 | 15.0 | 15.0 | 0.00 | 0.00 | 0.00 | 99 | 1012.9 |
| 20260504222530 | 81 | 176 | 2.0 | 14.0 | 0.00 | 0.00 | 0.00 | 99 | 1013.0 |
| 20260504222027 | 82 | 251 | 5.0 | 11.0 | 0.00 | 0.00 | 0.00 | 99 | 1013.1 |
| 20260504221524 | 82 | 235 | 4.0 | 9.0 | 0.00 | 0.00 | 0.00 | 99 | 1013.1 |
| 20260504221021 | 82 | 125 | 7.0 | 7.0 | 0.00 | 0.00 | 0.00 | 99 | 1013.2 |
| 20260504220518 | 82 | 249 | 0.0 | 11.0 | 0.00 | 0.00 | 0.00 | 99 | 1013.2 |
| 20260504220015 | 82 | 256 | 3.0 | 5.0 | 0.00 | 0.00 | 0.00 | 99 | 1013.3 |
| 20260504215511 | 82 | 159 | 3.0 | 7.0 | 0.00 | 0.00 | 0.00 | 99 | 1013.3 |
| 20260504215009 | 83 | 278 | 1.0 | 5.0 | 0.00 | 0.00 | 0.00 | 99 | 1013.5 |
| 20260504214504 | 82 | 128 | 2.0 | 13.0 | 0.00 | 0.00 | 0.00 | 99 | 1013.5 |
| 20260504214001 | 82 | 141 | 3.0 | 11.0 | 0.00 | 0.00 | 0.00 | 99 | 1013.6 |
| 20260504213457 | 81 | 174 | 1.0 | 12.0 | 0.00 | 0.00 | 0.00 | 99 | 1013.7 |
| 20260504212955 | 82 | 158 | 3.0 | 6.0 | 0.00 | 0.00 | 0.00 | 99 | 1013.7 |
| 20260504212450 | 81 | 111 | 0.0 | 10.0 | 0.00 | 0.00 | 0.00 | 99 | 1013.4 |
| 20260504211948 | 81 | 160 | 4.0 | 7.0 | 0.00 | 0.00 | 0.00 | 99 | 1014.1 |
| 20260504211444 | 81 | 240 | 3.0 | 13.0 | 0.00 | 0.00 | 0.00 | 99 | 1014.0 |
| 20260504210942 | 81 | 96 | 3.0 | 12.0 | 0.00 | 0.00 | 0.00 | 99 | 1014.0 |
| 20260504210438 | 82 | 145 | 4.0 | 6.0 | 0.00 | 0.00 | 0.00 | 99 | 1014.2 |
| 20260504205936 | 82 | 124 | 5.0 | 8.0 | 0.00 | 0.00 | 0.00 | 99 | 1014.4 |
| 20260504205433 | 83 | 153 | 4.0 | 9.0 | 0.00 | 0.00 | 0.00 | 99 | 1014.3 |
| 20260504204931 | 82 | 236 | 4.0 | 12.0 | 0.00 | 0.00 | 0.00 | 99 | 1014.4 |
| 20260504204429 | 81 | 134 | 4.0 | 11.0 | 0.00 | 0.00 | 0.00 | 99 | 1014.6 |
| 20260504203928 | 81 | 151 | 3.0 | 12.0 | 0.00 | 0.00 | 0.00 | 99 | 1014.5 |
| 20260504203425 | 82 | 96 | 2.0 | 8.0 | 0.00 | 0.00 | 0.00 | 99 | 1014.8 |
| 20260504202921 | 81 | 192 | 0.0 | 14.0 | 0.00 | 0.00 | 0.00 | 99 | 1015.0 |
| 20260504202418 | 81 | 184 | 2.0 | 13.0 | 0.00 | 0.00 | 0.00 | 99 | 1014.9 |
| 20260504201915 | 81 | 220 | 0.0 | 16.0 | 0.00 | 0.00 | 0.00 | 99 | 1015.0 |
| 20260504201412 | 82 | 134 | 5.0 | 12.0 | 0.00 | 0.00 | 0.00 | 99 | 1015.0 |
| 20260504200909 | 82 | 261 | 1.0 | 14.0 | 0.00 | 0.00 | 0.00 | 99 | 1015.4 |
| 20260504200406 | 81 | 144 | 6.0 | 13.0 | 0.00 | 0.00 | 0.00 | 99 | 1015.4 |
| 20260504195903 | 81 | 152 | 3.0 | 18.0 | 0.00 | 0.00 | 0.00 | 99 | 1015.8 |
| 20260504195358 | 81 | 235 | 9.0 | 12.0 | 0.00 | 0.00 | 0.00 | 99 | 1015.6 |
| 20260504194855 | 81 | 284 | 7.0 | 10.0 | 0.00 | 0.00 | 0.00 | 99 | 1016.0 |
| 20260504194351 | 80 | 145 | 3.0 | 6.0 | 0.00 | 0.00 | 0.00 | 99 | 1015.9 |
| 20260504193847 | 80 | 229 | 3.0 | 14.0 | 0.00 | 0.00 | 0.00 | 99 | 1015.9 |
| 20260504193344 | 80 | 119 | 2.0 | 13.0 | 0.00 | 0.00 | 0.00 | 99 | 1015.8 |
| 20260504192843 | 80 | 96 | 2.0 | 14.0 | 0.00 | 0.00 | 0.00 | 99 | 1016.3 |
| 20260504192341 | 79 | 189 | 3.0 | 13.0 | 0.00 | 0.00 | 0.00 | 99 | 1016.2 |
| 20260504191839 | 79 | 198 | 9.0 | 9.0 | 0.00 | 0.00 | 0.00 | 99 | 1016.0 |
| 20260504191337 | 79 | 119 | 3.0 | 8.0 | 0.00 | 0.00 | 0.00 | 99 | 1016.5 |
| 20260504190832 | 80 | 172 | 3.0 | 19.0 | 0.00 | 0.00 | 0.00 | 99 | 1016.7 |
| 20260504190328 | 80 | 169 | 2.0 | 8.0 | 0.00 | 0.00 | 0.00 | 99 | 1016.4 |
| 20260504185825 | 80 | 238 | 7.0 | 16.0 | 0.00 | 0.00 | 0.00 | 99 | 1016.5 |
| 20260504185322 | 80 | 223 | 7.0 | 10.0 | 0.00 | 0.00 | 0.00 | 99 | 1016.4 |
| 20260504184818 | 80 | 212 | 3.0 | 8.0 | 0.00 | 0.00 | 0.00 | 99 | 1016.6 |
| 20260504184314 | 78 | 124 | 4.0 | 8.0 | 0.00 | 0.00 | 0.00 | 99 | 1016.5 |
| 20260504183809 | 79 | 162 | 0.0 | 10.0 | 0.00 | 0.00 | 0.00 | 99 | 1016.6 |
| 20260504183307 | 78 | 226 | 6.0 | 12.0 | 0.00 | 0.00 | 0.00 | 99 | 1016.8 |
| 20260504182805 | 78 | 198 | 6.0 | 13.0 | 0.00 | 0.00 | 0.00 | 99 | 1016.9 |
| 20260504182304 | 78 | 208 | 5.0 | 14.0 | 0.00 | 0.00 | 0.00 | 99 | 1016.8 |
| 20260504181759 | 78 | 102 | 2.0 | 7.0 | 0.00 | 0.00 | 0.00 | 99 | 1017.0 |
| 20260504181256 | 79 | 218 | 3.0 | 7.0 | 0.00 | 0.00 | 0.00 | 99 | 1017.0 |
| 20260504180755 | 78 | 187 | 2.0 | 17.0 | 0.00 | 0.00 | 0.00 | 99 | 1017.2 |
| 20260504180253 | 78 | 155 | 6.0 | 8.0 | 0.00 | 0.00 | 0.00 | 99 | 1017.0 |
| 20260504175751 | 78 | 261 | 5.0 | 9.0 | 0.00 | 0.00 | 0.00 | 99 | 1017.4 |
| 20260504175248 | 78 | 114 | 0.0 | 17.0 | 0.00 | 0.00 | 0.00 | 99 | 1017.3 |
| 20260504174745 | 78 | 234 | 11.0 | 15.0 | 0.00 | 0.00 | 0.00 | 99 | 1017.6 |
| 20260504174243 | 77 | 65 | 0.0 | 7.0 | 0.00 | 0.00 | 0.00 | 99 | 1017.6 |
| 20260504173739 | 77 | 165 | 3.0 | 12.0 | 0.00 | 0.00 | 0.00 | 99 | 1017.6 |
| 20260504173237 | 77 | 112 | 2.0 | 6.0 | 0.00 | 0.00 | 0.00 | 99 | 1017.9 |
| 20260504172733 | 77 | 263 | 3.0 | 13.0 | 0.00 | 0.00 | 0.00 | 99 | 1018.0 |
| 20260504172230 | 77 | 90 | 1.0 | 8.0 | 0.00 | 0.00 | 0.00 | 99 | 1017.8 |
| 20260504171726 | 76 | 210 | 0.0 | 19.0 | 0.00 | 0.00 | 0.00 | 99 | 1017.9 |
| 20260504171223 | 77 | 143 | 2.0 | 9.0 | 0.00 | 0.00 | 0.00 | 99 | 1018.0 |
| 20260504170720 | 77 | 125 | 3.0 | 12.0 | 0.00 | 0.00 | 0.00 | 99 | 1018.3 |
| 20260504170217 | 76 | 123 | 0.0 | 7.0 | 0.00 | 0.00 | 0.00 | 99 | 1018.3 |
| 20260504160136 | 73 | 147 | 4.0 | 6.0 | 0.00 | 0.00 | 0.00 | 99 | 1019.0 |
| 20260504151103 | 71 | 133 | 3.0 | 9.0 | 0.00 | 0.00 | 0.00 | 99 | 1019.4 |
| 20260504150601 | 71 | 162 | 2.0 | 15.0 | 0.00 | 0.00 | 0.00 | 99 | 1019.5 |
| 20260504141026 | 68 | 154 | 2.0 | 18.0 | 0.00 | 0.00 | 0.00 | 99 | 1019.9 |
| 20260504140523 | 67 | 235 | 5.0 | 9.0 | 0.00 | 0.00 | 0.00 | 99 | 1019.8 |
| 20260504130447 | 64 | 198 | 4.0 | 8.0 | 0.00 | 0.00 | 0.00 | 99 | 1020.0 |
| 20260504110334 | 62 | 97 | 1.0 | 5.0 | 0.00 | 0.00 | 0.00 | 99 | 1019.3 |
| 20260504100252 | 63 | 141 | 0.0 | 4.0 | 0.00 | 0.00 | 0.00 | 99 | 1019.6 |